sat.trackr.live / text

‹ back to catalog

GAOFEN-9 01

NORAD 40894 · 2015-047A

PAYLOAD ACTIVE UNKNOWN

§ Identity

Operator
Country
PRC
Launch date
2015-09-14
Launch site
JSC
Launch vehicle
Mass (kg)
RCS (m²)
3.68

Purposes: earth_obs

External: N2YO · Heavens-Above · Gunter

§ Orbital elements

Epoch: 2026-05-25T04:29:35.814048Z

Period
97.11 min
Inclination
97.6290°
Eccentricity
0.0026516
Mean motion
14.82833048 rev/d
Perigee alt
601.8 km
Apogee alt
639.0 km
Semi-major
6,998.5 km
B*
9.2256e-5
RAAN
181.9258°
Arg perigee
212.8060°
Mean anomaly
147.1509°
Rev number
57,678

§ Raw data

GAOFEN-9 011 40894U 15047A   26145.18722007  .00000700  00000+0  92256-4 0  99912 40894  97.6290 181.9258 0026516 212.8060 147.1509 14.82833048576784

JSON: /api/v1/satellites/40894 · /tle

For live sub-satellite position, see the globe view (requires WebGL).

§ Visibility from observer

Set your observer location to see the next 7 days of passes ≥ 10°. The values pass through the URL so the page stays shareable.

No JS? Fill the form by hand. The geolocation button needs JavaScript.